Погода в Воркуте

Погода в Воркуте : погода сейчас, прогноз погоды и архив. Всё, что Вы хотите узнать о погоде в Воркуте!

Хотите узнать прогноз погоды в Воркуте? Тогда Вам сюда: Погода в Воркуте

Поиск расширенной информации на нашем сайте:

Другие новости

Новости СМИ2

Главная страница сайта

Новости сайта

03.07.2017

Напоминаем, что на нашем специализированном сайте Метеоцентр.Азия вы можете получить высокодетализированные автоматические прогнозы погоды по пунктам России, СНГ и мира в авиационном формате (включающие направление и скорость ветра, видимость, явления погоды, количество и форму облачности, нижнюю и верхнюю границу облачности).


Погода в Воркуте - сегодня

Время (UTC), дата Ветер
(°,м/с) 
Видим.   Явления Облачность Т
(°С)
Тd
(°С)
f(%) Тe
(°С)
Pmin
(гПа)
dP
(гПа)
Po
(мм)
O2
(г/м3)
Тmin Tmax R s Состояние
почвы
21 11.02.18 тихо ()   10 км    ясно 
-22 -23.9 84 -22  1033.4  -0.9  757  334           
00 12.02.18 тихо ()   10 км    ясно 
-21.9 -23.8 84 -22  1032.9  -0.5  757  333           
06 12.02.18 150 (ЮВ) 10 км    4/0 средняя, верхняя 
[Ac trans|Ci fib]
-18.7 -20.6 85 -21  1031.1  -0.5  756  328  -24.7         
09 12.02.18 170 (Ю) 10 км    ясно 
-16.1 -17.4 90 -18  1030  -0.8  755  325           
12 12.02.18 190 (Ю) 10 км    1/0 средняя 
[Ac trans]
-15 -17 85 -17  1029.2  -0.7  755  323           
18 12.02.18 160 (Ю) 10 км    ясно 
-15.8 -19.2 75 -21  1027.5  -0.9  753  324           
21 12.02.18 170 (Ю) 10 км    ясно 
-16.4 -19 80 -17  1026.8  -0.7  753  324           
00 13.02.18 180 (Ю) 10 км    6/0 средняя 
[Ac trans]
-14.9 -18.3 75 -19  1026  -0.7  752  322           
06 13.02.18 160 (Ю) 8000 м  слаб. снег  10/10 300 м верхняя 
[St|As trans|Ci ing]
-10.4 -12.4 85 -15  1024.5  -0.3  751  316           
00 17.02.18 200 (Ю) 8-12{13}  4300 м  слаб. снег  10/10 360 м 
[Ns]
-11.3 -13.3 85 -18  1020.6  -0.7  748  316           
03 17.02.18 200 (Ю) 10-13{14}  2200 м  снег  10/10 300 м 
[Ns]
-11.4 -13.4 85 -19  1019.6  -0.8  748  316  -11.8    0.7  41  неравномерный
сухой снег
100% 
15 17.02.18 190 (Ю) 9-14{16}  2500 м  слаб. ливневой снег  10/10 120 м кучево-дожд. 
[Cb cap]
-12.2 -13.5 90 -20  1017  -0.5  746  316    -11     
00 18.02.18 190 (Ю) 8-12{13}  1200 м  слаб. ливневой снег  10/10 210 м кучево-дожд. 
[Cb cap]
-11.2 -12.5 90 -18  1014.6  -0.9  744  314           
03 18.02.18 210 (ЮЗ) 9-13{14}  1400 м  слаб. ливневой снег  10/10 240 м кучево-дожд. 
[Cb cap]
-11 -13 85 -18  1013.4  -1.1  743  313  -12.3    47  неравномерный
сухой снег
100% 
00 19.02.18 330 (СЗ) 2{11}  10 км  {ливн. осадки}  4/0 
-21.8 -24.3 80 -25  1021.7  2.1  749  329           
06 19.02.18 тихо ()   10 км    4/0 верхняя 
[Ci fib]
-25.7 -28.1 80 -26  1024.9  751  336  -25.9         
09 19.02.18 тихо ()   10 км    8/0 средняя 
[Ac trans]
-24.1 -26.7 79 -24  1026.6  1.8  752  334           
12 19.02.18 тихо ()   10 км    1/0 средняя 
[Ac trans]
-26.4 -28.9 79 -26  1028.3  1.5  753  338           
18 19.02.18 тихо ()   8000 м  мгла  ясно 
-31 -34.1 74 -31  1029.6  0.2  754  345           
21 19.02.18 090 (В) 7000 м  ледяные иглы{снег}  ясно 
-33.9 -36.8 75 -35  1029.6  -0.2  753  349           
00 20.02.18 тихо ()   8000 м  мгла{снег}  ясно 
-34.6 -37.4 76 -35  1029.7  0.1  754  350           
06 20.02.18 040 (СВ) 1700 м  мгла  ясно 
-32.7 -35.8 74 -37  1028.5  -1.3  753  347           
09 20.02.18 030 (СВ) 9000 м  мгла  ясно 
-32.2 -35.3 74 -33  1028.3  -0.2  753  346           
12 20.02.18 030 (СВ) 10 км    ясно 
-30 -33 75 -34  1028.2  0.1  753  343           
15 20.02.18 тихо ()   10 км    ясно 
-30.1 -33.2 74 -30  1027.7  -0.5  752  343    -28.6       
Время (UTC), дата Ветер
(°,м/с) 
Видим.   Явления Облачность Т
(°С)
Тd
(°С)
f(%) Тe
(°С)
Pmin
(гПа)
dP
(гПа)
Po
(мм)
O2
(г/м3)
Тmin Tmax R s Состояние
почвы

Для получения пояснительной информации подведите курсор к названию столбца.

ПОГОДА в Воркуте - архив

Всё, что Вы хотите узнать о погоде в Воркуте - удобно и подробно!

Выберите нужную дату (начиная с 1 января 2015* года) и нажмите кнопку "Найти".
Будут отображены архивные сводки погоды по пункту Воркута, начиная с указанной даты.


Отображать данные в формате CSV (для использования в таблицах Excel)


Внимание! Наш архив погоды предназначен исключительно для личного некоммерческого использования в познавательных целях. Если Вам необходимы официальные справки о состоянии погоды (для производственных, юридических, коммерческих и т.п. целей), обращайтесь в органы Росгидромета.

*Примечание: данная дата относится к архиву по метеостанциям СССР (Россия, СНГ, Балтия).
Архив по метеостанциям Зарубежной Европы и Азии (кроме Китая) хранится 10 дней, по другим регионам земного шара (Китай, Африка, Америка, Австралия, Океания) - 1 день.

Воркута - район местоположения метеостанции


Название, широта, долгота, высота метеостанции:
Воркута 67.5°ш. 64°д. 172 м над ур. моря [Российская Федерация]

Дополнительная информация

В oтличие oт бoльшинства пoгoдных сайтoв мы публикуем пoдрoбную метеoинфoрмацию в детальнoм прoфессиoнальнoм фoрмате.

Характеристики температуры и влажнoсти вoздуха измеряются на высoте 2 м в тени вдали oт зданий и деревьев.
Скoрoсть ветра измеряется на высoте 10 м (на урoвне рoста челoвека скoрoсть ветра ниже в 1.5-2 раза). Если метеoстанция нахoдится в гoрoде или в лесу, тo скoрoсть ветра занижена на 2-4 м/с пo сравнению с oткрытым местoм. Скoрoсть ветра над акватoриями крупных рек и oзёр, а также на вершинах хoлмoв на 2-5 м/с выше, чем в oбычных услoвиях.
Атмoсфернoе давление в разных тoчках местнoсти мoжет значительнo oтличаться oт давления на метеoстанции, в зависимoсти oт услoвий рельефа (при пoдъёме на 10 м давление пoнижается примернo на 1 мм рт.ст.).